Regional Weather Roundup
Issued by NWS Grand Forks, ND

Home | Current Version | Previous Version | Graphics & Text | Print | Product List | Glossary Off
Versions: 1 2 3 4 5 6 7 8 9 10 11 12 13 14 15 16 17 18 19 20 21 22 23 24 25 26 27 28 29 30 31 32 33 34 35 36 37 38 39 40 41 42 43 44 45 46 47 48 49 50

000
ASUS43 KFGF 010831
RWRFGF
PRAIRIE TO PINES  WEATHER ROUNDUP
NATIONAL WEATHER SERVICE EASTERN NORTH DAKOTA/GRAND FORKS ND
300 AM CDT MON SEP 01 2014

 **SATELLITE DATA USED TO AUGMENT SKY COVER AT AUTOMATED STATIONS**
 *****  WEATHER ACROSS EASTERN NORTH DAKOTA  *****

CITY           SKY/WX    TMP DP  RH WIND       PRES   REMARKS
GRAND FORKS    CLEAR     53  52  96 W6        29.66S
GRAND FRKS AFB CLEAR     54  54  99 NW6       29.68R
GRAND FRKS NWS   N/A     52 N/A N/A NW6         N/A
DEVILS LAKE    MOCLDY    57  52  82 NW8       29.70S
FARGO          PTCLDY    57  54  89 NW9       29.65F
WAHPETON ARPT  PTSUNNY   55  54  94 W7        29.69R
$$

 ***** WEATHER ACROSS CENTRAL AND WESTERN NORTH DAKOTA  *****

CITY           SKY/WX    TMP DP  RH WIND       PRES   REMARKS
BISMARCK       PTCLDY    56  54  93 W6        29.78R
MINOT          CLEAR     53  50  89 CALM      29.74S
JAMESTOWN      CLOUDY    58  54  86 W6        29.72S
MINOT AFB      PTCLDY    50  50  99 W7        29.74R
GARRISON         N/A     51  50  96 N6        29.76R
WILLISTON      PTCLDY    53  50  89 W5        29.79F
DICKINSON      CLEAR     53  47  79 W17       29.80R
HETTINGER      PTCLDY    49  45  86 CALM      29.84S
$$

 *****  OTHER AIRPORT OBSERVATIONS IN OUR AREA  *****

CITY           SKY/WX    TMP DP  RH WIND       PRES   REMARKS
WALHALLA       PTSUNNY   52  52 100 CALM      29.68S
GRAFTON AIRPOR FAIR      55  55 100 W7        29.67S
VALLEY CITY AR FAIR      54  54 100 W7        29.71S
CANDO          FAIR      50  50 100 W3        29.72S
CAVALIER APRT  FAIR      54  54 100 W5        29.67S
GWINNER        SUNNY     59  57  94 W6        29.72R
SHEYENNE NWR     N/A     58  56  92 NW6       29.95
ROLLA          FAIR      48  48 100 S5        29.73S
 ***** THE ABOVE OBSERVATIONS ARE NON NWS ARE NOT QUALITY
       CONTROLLED AND MAY MIS-REPORT RAIN FOR SNOW...
$$

  *****  WEATHER ACROSS NORTHERN MINNESOTA  *****

CITY           SKY/WX    TMP DP  RH WIND       PRES   REMARKS
FLAG ISLAND    CLOUDY    61  57  88 NW14      29.59R
WARROAD        CLOUDY    57  54  88 W7        29.63R
ROSEAU         CLOUDY    61  55  82 W5        29.64R
HALLOCK        PTCLDY    55  54  94 CALM      29.66S
THF RVR FALLS  CLOUDY    57  57 100 NW10      29.65S VSB 1/2
BAUDETTE       CLOUDY    60  57  89 VRB3      29.61R
WASKISH        CLOUDY    61  59  94 W9        29.62F
CROOKSTON      CLEAR     55  54  94 NW6       29.66F
$$
  *****  WEATHER ACROSS CENTRAL AND WEST MINNESOTA  *****

CITY           SKY/WX    TMP DP  RH WIND       PRES   REMARKS
FOSSTON        FOG       52  50  93 CALM      29.65F VSB 1/2
BEMIDJI        FOG       53  53  99 W3        29.63F VSB 1/2
PARK RAPIDS    MOCLDY    55  55 100 W6        29.65R FOG
ELBOW LAKE     CLOUDY    61  61 100 NW8       29.68R FOG
WADENA         MOCLDY    61  59  94 W5        29.64S
DETROIT LAKES  PTCLDY    59  55  88 W3        29.68R
MOORHEAD       PTCLDY    57  57 100 NW6       29.68R
FERGUS FALLS   MOCLDY    57  57 100 NW7       29.68R FOG
MORRIS MN      LGT RAIN  63  63 100 W6        29.68R
STAPLES        CLOUDY    61  61 100 NW3       29.64R
$$
  *****  WEATHER ELSEWHERE ACROSS MINNESOTA  *****

CITY           SKY/WX    TMP DP  RH WIND       PRES   REMARKS
DULUTH         LGT RAIN  64  62  93 W5        29.59F
INTRNTL FALLS  CLOUDY    60  58  92 W6        29.58S
ELY            LGT RAIN  63  61  94 CALM      29.58F
CLOQUET        RAIN      64  63  94 W5        29.60S
WHEATON        CLOUDY    61  59  94 W5        29.71R
BRAINERD       CLOUDY    65  63  93 NW6       29.62F
HIBBING        CLOUDY    64  62  93 W3        29.60F
ALEXANDRIA     CLOUDY    64  63  96 W6        29.67S
SAINT CLOUD    CLOUDY    68  65  90 SW6       29.63R
MINNEAPOLIS    LGT RAIN  66  65  96 S7        29.64S FOG
$$

  *****  WEATHER ACROSS SOUTH DAKOTA  *****

CITY           SKY/WX    TMP DP  RH WIND       PRES   REMARKS
SIOUX FALLS    PTCLDY    63  60  90 NW7       29.71R
BROOKINGS      NOT AVBL
WATERTOWN      CLOUDY    62  60  93 CALM      29.73R
HURON          CLOUDY    61  60  97 W5        29.73R
SISSETON         N/A     62  60  93 NW6       29.69R
ABERDEEN       CLOUDY    60  58  92 W7        29.73R
MITCHELL       LGT RAIN  62  61  96 NW12      29.76R FOG
PIERRE         CLEAR     57  53  86 W6        29.78R
MOBRIDGE       MOCLDY    57  54  89 N5        29.75S
RAPID CITY     PTCLDY    51  47  86 W7        29.90R
$$

  *****  SOME WEATHER IN NEARBY STATES *****

CITY           SKY/WX    TMP DP  RH WIND       PRES   REMARKS
GLASGOW MT     PTCLDY    52  48  86 W3        29.83R
GREAT FALLS MT PTCLDY    49  40  71 SW12      29.93R
CHEYENNE WY    CLEAR     45  41  86 SW6       30.07S
SCOTTSBLUFF NE CLEAR     50  48  93 NW3       29.99R
OMAHA NE       CLOUDY    69  64  84 S10       29.70F
DES MOINES IA  CLOUDY    69  64  84 S8        29.73R
DAVENPORT IA   RAIN      65  63  93 NW10G20   29.83S FOG
CHICAGO IL     PTCLDY    74  68  81 S10       29.83F
EAU CLAIRE WI  CLOUDY    66  65  96 SW8       29.64F
LA CROSSE WI   LGT RAIN  67  63  87 W23G29    29.64F
$$

  *****  SOME NATIONAL WEATHER *****

CITY           SKY/WX    TMP DP  RH WIND       PRES   REMARKS
LA GUARDIA NY  CLOUDY    76  70  82 SW7       29.97F
RALEIGH NC     PTCLDY    75  71  87 SW6       30.08S
ATLANTA GA     MOCLDY    75  70  84 SW3       30.10F
NEW ORLEANS LA PTCLDY    82  76  81 SE7       30.00F
OKLAHOMA CITY  PTCLDY    81  69  67 S20G30    29.79S
ALBUQUERQUE NM CLEAR     78  37  22 W10       30.06R
SALT LAKE CITY CLEAR     58  39  49 SE7       30.00R
LOS ANGELES CA MOCLDY    71  65  81 E12       29.81S
BOISE ID       CLEAR     57  39  51 SE5       30.00R
SEATTLE WA     MOCLDY    59  54  83 S3        30.08R
$$

*** WEATHER ACROSS MANITOBA...SASKATCHEWAN AND ONTARIO ***
                ***ONTARIO***

CITY           SKY/WX    TMP DP  RH WIND       PRES   REMARKS
GERALDTON      LGT RAIN N/A N/A N/A S9          N/A
THUNDER BAY    CLOUDY    61  61 100 VRB2      29.59S
SIOUX LOOKOUT  CLOUDY    63  61  94 SW7       29.51R
TORONTO        CLEAR     64  61  88 W3        29.97R
BIG TROUT LK   LGT RAIN  57  54  88 E5        29.54F FOG
PICKLE LAKE    NOT AVBL
DRYDEN         CLOUDY    61  59  94 W10       29.53R
KENORA         DRIZZLE   59  57  94 NW7       29.58R
$$
                *** MANITOBA***

CITY           SKY/WX    TMP DP  RH WIND       PRES   REMARKS
BRANDON        PTCLDY    50  48  93 SW3       29.70R
DAUPHIN        CLEAR     54  50  87 W8        29.65S
ISLAND LAKE    CLOUDY    57  57 100 CALM      29.54F
PILOT MOUND      N/A     50  50 100 W5          N/A
THE PAS        PTCLDY    55  50  82 W8        29.58S
THOMPSON       NOT AVBL
WINNIPEG       FOG       54  52  94 W6        29.65S VSB 3/4
LYNN LAKE      CLEAR     48  45  87 MISG      29.57R
CHURCHILL      LGT RAIN  52  52 100 SE6       29.50S FOG
GILLAM         CLOUDY    54  54 100 CALM      29.53R
$$
                ***SASKATCHEWAN***

CITY           SKY/WX    TMP DP  RH WIND       PRES   REMARKS
ESTEVAN        MOCLDY    52  50  93 NW5       29.76S
KINDERSLEY     CLEAR     45  41  87 W3        29.80S
LLOYDMINSTER   CLEAR     41  39  93 W8        29.75S
PRINCE ALBERT  MOCLDY    46  46 100 W5        29.66S
REGINA         PTCLDY    50  48  93 NE7       29.76S
YORKTON        CLEAR     52  46  82 W8        29.70R
N. BATTLEFORD  MOCLDY    45  41  87 SW3       29.76S
LA RONGE       CLOUDY    52  48  87 W5        29.64R
SASKATOON      CLEAR     45  43  93 W8        29.74S
SWIFT CURRENT  CLEAR     45  41  87 SW10      29.82R
$$
NOTE: THESE ARE AUTOMATED STATIONS WITH LIMITED QUALITY CONTROL
      "FAIR" INDICATES FEW OR NO CLOUDS BELOW 12,000 FEET WITH NO
      SIGNIFICANT WEATHER AND/OR OBSTRUCTIONS TO VISIBILITY.
      SKY/WX - SKY CONDITION AND SIGNIFICANT WEATHER.
      TMP - AIR TEMPERATURE.    DP   - DEWPOINT TEMPERATURE.
      RH  - RELATIVE HUMIDITY.  PRES - PRESSURE.
      HX  - HEAT INDEX.         WCI  - WIND CHILL INDEX.
$


USA.gov is the U.S. government's official web portal to all federal, state and local government web resources and services.